DELTA 1 DEB

Satellite information

Favourite Embed

Satellite Type and Status

DEBRISIN ORBIT

Key statistics

Satellite DELTA 1 DEB at a glance.

Uptime

18342

Days in orbit

Revolutions

≈ 13.6

Per day

Orbit

SSO

Sun Synchronous Orbit

Inclination

99.7

Latest

Satellite identification and parameters

Extended collection of information and parameters for DELTA 1 DEB.

Object identification

Identified? True

Debris? True

Object name: DELTA 1 DEB

International designator: 1975-052LX

Object number (NORAD): 42638

Object ID (CCSDS): 42638

Country: UNITED STATES OF AMERICA (US)

Current information (Y/N): Y

RCS size: SMALL

Orbital parameters

Period: 105.674 minutes

Inclination: 99.7399 deg

SMA: 7404.113 km

Apoapsis: 1061.145 km

Periapsis: 990.81 km

RAAN: 29.6477 deg

Eccentricy: 0.0047497

Argument of periapsis: 163.2505 deg

Mean anomaly: 197.0217 deg

Mean motion: 13.62677999 rev/day

Mean motion (dot): 0.00004027 rev/day2

B* drag term: 0.0051848 1/REarth

Two-line elements (TLE)

Creation date: April 9, 2025, 5:06 p.m.

Reference frame: TEME

Reference center: EARTH

Epoch: Oct. 13, 2024, 1:15 p.m. UTC

TLE line 0: 0 DELTA 1 DEB

TLE line 1: 1 42638U 75052LX 24287.55273983 .00004027 00000-0 51848-2 0 9998

TLE line 2: 2 42638 99.7399 29.6477 0047497 163.2505 197.0217 13.62677999969289

Live tracking on map

Real-time ground track for satellite DELTA 1 DEB.

In-orbit conjunctions

A list of the most updated potential collisions computed for object DELTA 1 DEB.

Target Orbit TCA Probability of collision Miss distance Type
CZ-4 DEB SSO 2024-09-26 00:42:43 0.0001932634 246.0 (m) DEBRIS

Associated space launch

Experimental meteorological satellite

DELTA 1 DEB was lifted into orbit during the mission ‘Delta 2910 | Nimbus 6’, on board a Delta 2910 space rocket.

The launch took place on June 12, 1975, 8:12 a.m. from Space Launch Complex 2W.

For more information about the launch, click the button.

Launch to space Delta 2910 | Nimbus 6
Delta 2910 | Nimbus 6

Agency: N/A

Status: Launch Successful

Launch date: June 12, 1975, 8:12 a.m. UTC

Rocket: Delta 2910

Launch pad: Space Launch Complex 2W

Location: Vandenberg SFB, CA, USA

...

Latest news about this satellite

There are no fresh news available about this satellite. Check back as we update our databases every day.


Newsletter sign-up

Weekly statistics, charts and insights to help you stay on top of the space industry.